Satellite-Ground Cal/Val Site Overpasses Predictions

Prediction of Satellite NPP Overpassing Cal/Val Site: Antarctic Dome C

Ground Cal/Val Site Location: Latitude: -75.10, Longitude: 123.35; Satellite-Ground Site NADIR distance within 100 km.

Table of predicted overpasses for the next 14.0 days since TLE Epoch: 10/26/2018
Interval Starting Time Ending Time Minimum Distance Time Minimum Distance (km)
1 10/28/2018 07:31:52 10/28/2018 07:32:21 10/28/2018 07:32:06 3.28
2 10/31/2018 14:55:19 10/31/2018 14:55:47 10/31/2018 14:55:33 19.67
3 11/01/2018 14:36:36 11/01/2018 14:36:50 11/01/2018 14:36:43 87.29
4 11/02/2018 07:38:08 11/02/2018 07:38:35 11/02/2018 07:38:22 38.35
5 11/03/2018 07:19:21 11/03/2018 07:19:41 11/03/2018 07:19:31 71.65
6 11/05/2018 15:01:36 11/05/2018 15:02:00 11/05/2018 15:01:48 56.96
7 11/06/2018 14:42:46 11/06/2018 14:43:11 11/06/2018 14:42:58 52.26
8 11/07/2018 07:44:26 11/07/2018 07:44:46 11/07/2018 07:44:36 73.68


NCC Satellite Cal/Val Overpasses Prediction Service
